User: anonymous   Login
Location: Beang
(6.6177°N, 10.9863°W)
Time: 15:51:06
(UTC+00:00)
Language:

CZ-2C R/B - Orbit

View from above orbital plane
View from above orbital plane
View from above satellite
View from above satellite

Ground track
Ground track

The orbit data is extracted from the following two-line orbital elements,

1 36089U 09061B   20225.49314863 -.00000019  00000-0  65100-5 0  9999
2 36089  98.1581 197.3343 0083225 100.3262   9.7677 14.49833362568664
Epoch (UTC): 12 August 2020 11:50:08
Eccentricity: 0.0083225
inclination: 98.1581°
perigee height: 667 km
apogee height: 785 km
right ascension of ascending node: 197.3343°
argument of perigee: 100.3262°
revolutions per day: 14.49833362
mean anomaly at epoch: 9.7677°
orbit number at epoch: 56866

The dashed part of the orbit path shows where the satellite is in the earth's shadow,  

DLR